Miscellaneous Local Product
Issued by NWS North Platte, NE

Home | Current Version | Previous Version | Text Only | Print | Product List | Glossary On
Versions: 1 2 3 4 5 6 7 8 9 10 11 12 13 14 15 16 17 18 19 20 21 22 23 24 25 26 27 28 29 30 31 32 33 34 35 36 37 38 39 40 41 42 43 44 45 46 47 48 49 50
000
AXUS43 KLBF 280110
MISLBF


WESTERN AND NORTH CENTRAL NEBRASKA HOURLY WEATHER ROUNDUP
NATIONAL WEATHER SERVICE NORTH PLATTE NE
800 PM CDT MON MAR 27 2017

NOTE: "FAIR" INDICATES FEW OR NO CLOUDS BELOW 12,000 FEET WITH NO
SIGNIFICANT WEATHER AND/OR OBSTRUCTIONS TO VISIBILITY.

NOTE: STATIONS NOT REPORTING VARIABLES SUCH AS SKY/WEATHER OR
PRESSURE ARE PROVIDED BY RAWS AND APRS NETWORKS AND ARE NOT UNDER
NATIONAL WEATHER SERVICE QUALITY CONTROL.

...OBSERVATIONS IN AND NEAR THE EASTERN PANHANDLE OF NEBRASKA...

CITY           SKY/WX    TMP DP  RH WIND       PRES   REMARKS
PINE RIDGE     CLEAR     57  39  51 E14       29.83R
CHADRON        PTCLDY    59  34  39 NE12      29.80R
ALLIANCE       CLOUDY    56  32  40 S7        29.80R
SIDNEY         CLOUDY    58  31  35 SE12      29.82R
CRESCENT LAKE    N/A     57  36  45 S6          N/A
$$

...OBSERVATIONS IN NORTHERN NEBRASKA AND FAR SOUTHERN SOUTH DAKOTA...

CITY           SKY/WX    TMP DP  RH WIND       PRES   REMARKS
WINNER         CLOUDY    57  37  47 E10       29.88R
VALENTINE      CLOUDY    57  37  47 E9        29.87R
THEDFORD       CLOUDY    58  44  60 SE12      29.87R
AINSWORTH      CLOUDY    55  43  63 SE10      29.89R
O`NEILL        CLEAR     53  38  56 E6        29.92R
ORD            CLEAR     55  40  56 SE7       29.91R
BROKEN BOW     CLEAR     52  43  71 SE8       29.90R
VALENTINE NWR    N/A     57  40  53 SE10        N/A
HALSEY           N/A     57  41  56 SE7         N/A
BUTTE            N/A     52  37  57 E8          N/A
CHAMBERS         N/A     53  35  50 E3          N/A
EWING            N/A     51  40  65 CALM        N/A
$$

...OBSERVATIONS IN SOUTHWEST NEBRASKA AND FAR NORTHEAST COLORADO...

CITY           SKY/WX    TMP DP  RH WIND       PRES   REMARKS
WRAY           FAIR      64  30  27 S12       29.82S
HOLYOKE        FAIR      61  34  36 SE10      29.83R
IMPERIAL       CLEAR     58  37  45 SE13      29.84R
OGALLALA       CLEAR     61  35  39 SE6       29.83R
NORTH PLATTE   CLEAR     57  42  57 SE10      29.86R
MCCOOK         CLEAR     57  42  57 SE12      29.88R
LEXINGTON      CLEAR     55  43  63 SE9       29.90S
STAPLETON        N/A     54  45  71 CALM        N/A
GOTHENBURG       N/A     58  41  53 SE9         N/A
CALLAWAY         N/A     56  44  64 SE10        N/A
$$

...OBSERVATIONS IN CENTRAL LINCOLN COUNTY AREA...

CITY           SKY/WX    TMP DP  RH WIND       PRES   REMARKS
N.P. AIRPORT   CLEAR     57  42  57 SE10      29.86R
N.P. DOWNTOWN    N/A     57  44  62 SE3G12      N/A
N.P. SOUTHEAST   N/A     56  44  63 E7          N/A
N.P. HILLCREST   N/A     56  44  64 SE12        N/A
$$

...SOME OBSERVATIONS FROM AROUND THE REGION...

CITY           SKY/WX    TMP DP  RH WIND       PRES   REMARKS
DENVER         LGT RAIN  51  39  63 S18G30    29.80R
LIMON          CLOUDY    53  36  52 SE14      29.82S
ASPEN          CLOUDY    47  23  38 N7        29.81R
LARAMIE        CLOUDY    46  27  47 S13       29.83R
CASPER         CLOUDY    51  28  41 NE6       29.81R
CHEYENNE       CLOUDY    52  29  41 S17G23    29.82R
SCOTTSBLUFF    CLOUDY    59  32  36 E3        29.80R
GRAND ISLAND   CLEAR     49  42  77 SE6       29.94R
OMAHA          CLOUDY    51  40  65 CALM      29.97R
SIOUX FALLS    MOCLDY    52  39  61 SE12      29.95R
PIERRE         PTCLDY    53  31  42 E7        29.89R
RAPID CITY     CLEAR     52  35  52 E10       29.86R
BISMARCK       CLOUDY    56  32  40 E8        29.93R
KANSAS CITY    CLOUDY    51  46  83 NE6       29.95R
HILL CITY      MOCLDY    55  42  61 E7        29.90S
WICHITA        CLOUDY    53  47  79 E5        29.94R
DODGE CITY     CLEAR     57  42  57 E12       29.88R
OKLAHOMA CITY  PTCLDY    63  45  51 NE6       29.88S
DALLAS         CLEAR     71  54  54 CALM      29.85R
AMARILLO       CLEAR     63  37  38 SE12      29.85R
$$




USA.gov is the U.S. government's official web portal to all federal, state and local government web resources and services.